• Join FlightAware (Why Join?)
  • Login
  • US Flag 
12:53PM EDT


 

Airport Tracker/Info


-or-


 

Live Flight TrackerFlight Track Log ✈ N690TW ✈ 16-Mar-2014 ✈ KSBS - KBJC

Flight Track Log - Related Links

Times and Time Zones

All times are in EDT time to prevent confusion due to time zone crossing. See the N690TW flight status page for this flight to view local times or setup timezone preferences in your user account.

Time Position Orientation Groundspeed Altitude Reporting Facility
EDT Latitude Longitude Course Direction KTS MPH feet Rate Location/Type
10:15AM 40.5094 -106.8983 90° East 179 206 10,800  Level Denver Center
10:16AM 40.5036 -106.8253 96° East 184 212 12,500 1,680 Climbing Denver Center
10:17AM 40.4958 -106.7497 98° East 195 224 14,300 1,740 Climbing Denver Center
10:18AM 40.4889 -106.6736 97° East 202 232 16,100 1,620 Climbing Denver Center
10:19AM 40.4825 -106.6006 97° East 203 234 17,700 1,320 Climbing Denver Center
10:20AM 40.5167 -106.3102 90° East  Level FlightAware Approximate
10:20AM 40.4742 -106.5225 98° East 207 238 18,900  Level Denver Center
10:21AM 40.4636 -106.4303 99° East 216 249 20,700 1,620 Climbing Denver Center
10:22AM 40.4561 -106.3547 97° East 220 253 22,300 1,080 Climbing Denver Center
10:23AM 40.4464 -106.2592 98° East 240 276 23,000 300 Climbing Denver Center
10:24AM 40.4364 -106.1567 97° East 274 315 23,000 -420 Level Denver Center
10:25AM 40.4242 -106.0497 99° East 295 339 22,200 -1,140 Descending Denver Center
10:26AM 40.4131 -105.9344 97° East 315 362 20,700 -1,500 Descending Denver Center
10:27AM 40.4008 -105.8217 98° East 315 362 19,200 -1,500 Descending Denver Center
10:28AM 40.3875 -105.7089 99° East 315 362 17,700 -1,320 Descending Denver Center
10:29AM 40.3758 -105.5972 98° East 314 361 16,500 -840 Descending Denver Center
10:30AM 40.3644 -105.5078 99° East 313 360 16,000 -540 Descending Denver Center
10:31AM 40.3078 -105.3786 120° Southeast 322 371 15,400 -960 Descending Denver Center
10:32AM 40.2425 -105.2967 136° Southeast 328 377 14,100 -1,500 Descending Denver Center
10:33AM 40.1714 -105.2100 137° Southeast 324 373 12,400 -1,560 Descending Denver Center
10:34AM 40.1089 -105.1306 136° Southeast 317 365 10,900 -1,440 Descending Denver Center
10:35AM 40.0439 -105.0578 139° Southeast 310 357 9,500 -1,560 Descending Denver Center
10:36AM 39.9586 -105.0386 170° South 283 326 7,800 -1,380 Descending Denver Center
10:37AM 39.9003 -105.0525 190° South 205 236 6,700 -1,020 Descending Denver Center
10:38AM 39.8956 -105.0919 261° West 117 135 5,800 -900 Descending Denver Center
10:40AM 39.9000 -105.1167 300° West  Level FlightAware Approximate
10:47AM 39.9088 -105.1172 300° West  Level Estimated
10:48AM 39.9088 -105.1172 300° West  Level Estimated
10:49AM 39.9088 -105.1172 300° West  Level Estimated